Location: New Frontier Mobile Home Park
(32.8448°N, 116.9675°W)
Time: 22:54:40
(UTC+00:00)

Spot 2 Rocket - Pass Details

Date: 14 July 2020
Orbit: 757 x 772 km, 98.6° (Epoch: 05 August)

Event Time Altitude Azimuth Distance (km) Brightness Sun altitude
Exits shadow 05:39:47 36° 234° (SW) 1,196 4.4 -26.9°
Maximum altitude 05:40:45 40° 261° (W) 1,125 4.5 -27.0°
Drops below altitude 10° 05:45:32 10° 330° (NNW) 2,318 7.0 -27.5°
Sets 05:48:00 0° 338° (NNW) 3,249 8.0 -27.8°
